Change the Weather History Date:

Thursday, February 27, 2014

  Actual Average Record
Temperature  
Mean Temperature 6 °F -  
Max Temperature 19 °F 31 °F 51 °F (2009)
Min Temperature -7 °F 5 °F -18 °F (2003)
Degree Days  
Heating Degree Days 59    
Moisture  
Dew Point 1 °F    
Average Humidity 65    
Maximum Humidity 85    
Minimum Humidity 31    
Precipitation  
Precipitation 0.01 in - - ()
Sea Level Pressure  
Sea Level Pressure 29.67 in    
Wind  
Wind Speed 6 mph (WSW)    
Max Wind Speed 21 mph    
Max Gust Speed 26 mph    
Visibility 4 miles    
Events Snow    
Averages and records for this station are not official NWS values.
T = Trace of Precipitation, MM = Missing Value Source: NWS Daily Summary

Daily Weather History Graph

Daily Weather History Graph

Search for Another Location

Airport or City:

Trip Planner

Search our weather history database for the weather conditions in past years. The results will help you decide how hot, cold, wet, or windy it might be!

Date:

Astronomy

Feb. 27, 2014 Rise Set
Actual Time 6:26 AM EST 5:31 PM EST
Civil Twilight 5:57 AM EST 6:00 PM EST
Nautical Twilight 5:24 AM EST 6:34 PM EST
Astronomical Twilight 4:50 AM EST 7:08 PM EST
Moon 5:00 AM EST (2/27) 3:51 PM EST (2/27)
Length of Visible Light 12h 03m
Length of Day
11h 04m
Waning Crescent, 4% of the Moon is Illuminated
Feb 27
Waning Crescent
Mar 1
New
Mar 8
First Quarter
Mar 16
Full
Mar 23
Last Quarter

Hourly Weather History & Observations

Time (EST) Temp. Windchill Dew Point Humidity Pressure Visibility Wind Dir Wind Speed Gust Speed Precip Events Conditions
12:52 AM -7.1 °F - -13.0 °F 75% 29.82 in 10.0 mi Calm Calm - N/A   Clear
1:52 AM -5.1 °F - -11.0 °F 76% 29.81 in 10.0 mi Calm Calm - N/A   Mostly Cloudy
2:52 AM -4.0 °F - -9.9 °F 76% 29.80 in 7.0 mi Calm Calm - N/A   Overcast
3:52 AM -2.9 °F - -8.0 °F 79% 29.78 in 10.0 mi Calm Calm - N/A   Overcast
4:52 AM -2.0 °F - -8.0 °F 76% 29.76 in 8.0 mi Calm Calm - N/A   Overcast
5:52 AM -2.0 °F - -8.0 °F 76% 29.74 in 7.0 mi Calm Calm - N/A   Overcast
6:52 AM -0.9 °F - -6.0 °F 79% 29.71 in 5.0 mi Calm Calm - N/A   Haze
7:52 AM 1.0 °F -6.7 °F -5.1 °F 75% 29.69 in 8.0 mi Variable 3.5 mph - N/A   Overcast
8:52 AM 12.0 °F 2.7 °F -4.0 °F 49% 29.66 in 10.0 mi South 5.8 mph - N/A   Overcast
9:52 AM 15.1 °F - -6.0 °F 39% 29.65 in 10.0 mi North - - N/A   Scattered Clouds
10:52 AM 18.0 °F 5.4 °F -8.0 °F 31% 29.61 in 9.0 mi SSW 11.5 mph 20.7 mph N/A   Mostly Cloudy
11:52 AM 18.0 °F 6.1 °F -2.9 °F 40% 29.60 in 9.0 mi SSW 10.4 mph 18.4 mph N/A   Overcast
12:52 PM 17.1 °F 3.6 °F -0.0 °F 47% 29.58 in 9.0 mi SSW 12.7 mph 20.7 mph N/A   Mostly Cloudy
1:52 PM 18.0 °F 6.1 °F -0.9 °F 44% 29.56 in 10.0 mi South 10.4 mph 17.3 mph N/A   Overcast
2:52 PM 19.9 °F 10.1 °F -0.9 °F 40% 29.57 in 10.0 mi South 8.1 mph - N/A   Mostly Cloudy
3:29 PM 17.1 °F 2.5 °F 3.9 °F 56% 29.52 in 1.5 mi WSW 15.0 mph - 0.00 in Snow Light Snow
3:32 PM 17.1 °F 3.6 °F 5.0 °F 59% 29.52 in 0.8 mi WSW 12.7 mph 20.7 mph 0.00 in Snow Light Snow
3:43 PM 16.0 °F 3.6 °F 7.0 °F 68% 29.53 in 0.5 mi WSW 10.4 mph - 0.00 in Snow Snow
3:52 PM 17.1 °F 6.6 °F 8.1 °F 68% 29.60 in 0.5 mi West 8.1 mph - 0.00 in Snow Snow
3:58 PM 17.1 °F 5.0 °F 7.0 °F 65% 29.52 in 1.5 mi West 10.4 mph - 0.00 in Snow Light Snow
4:00 PM 17.1 °F 6.6 °F 6.1 °F 62% 29.52 in 4.0 mi West 8.1 mph - 0.00 in Snow Light Snow
4:52 PM 17.1 °F 11.7 °F 1.0 °F 50% 29.60 in 10.0 mi SSW 3.5 mph - 0.00 in   Mostly Cloudy
5:52 PM 16.0 °F 8.8 °F 1.0 °F 52% 29.61 in 10.0 mi SSW 4.6 mph - N/A   Scattered Clouds
6:52 PM 15.1 °F 9.4 °F 1.9 °F 56% 29.63 in 10.0 mi South 3.5 mph - N/A   Overcast
7:52 PM 16.0 °F 6.3 °F 1.9 °F 54% 29.64 in 10.0 mi SSW 6.9 mph - N/A   Overcast
8:20 PM 16.0 °F 0.6 °F 6.1 °F 65% 29.58 in 1.0 mi WSW 16.1 mph 23.0 mph 0.00 in Snow Light Snow
8:27 PM 15.1 °F 1.8 °F 9.0 °F 77% 29.59 in 0.2 mi WSW 11.5 mph 23.0 mph 0.00 in Snow Heavy Snow
8:43 PM 14.0 °F -2.0 °F 9.0 °F 80% 29.62 in 0.2 mi WNW 16.1 mph 23.0 mph 0.01 in Snow Heavy Snow
8:48 PM 12.2 °F -1.8 °F 8.6 °F 85% 29.62 in 0.2 mi WNW 11.5 mph 23.0 mph 0.01 in Snow Heavy Snow
8:52 PM 14.0 °F 1.2 °F 8.1 °F 77% 29.70 in 0.8 mi West 10.4 mph - 0.01 in Snow Light Snow
8:55 PM 14.0 °F 2.9 °F 8.1 °F 77% 29.63 in 1.2 mi West 8.1 mph - 0.00 in Snow Light Snow
9:08 PM 14.0 °F 3.9 °F 8.1 °F 77% 29.64 in 1.0 mi WSW 6.9 mph - 0.00 in Snow Light Snow
9:15 PM 14.0 °F 2.9 °F 7.0 °F 74% 29.65 in 1.8 mi WSW 8.1 mph - 0.00 in Snow Light Snow
9:42 PM 14.0 °F 3.9 °F 7.0 °F 74% 29.67 in 0.8 mi Variable 6.9 mph - 0.00 in Snow Light Snow
9:52 PM 12.9 °F 0.7 °F 8.1 °F 81% 29.73 in 0.5 mi West 9.2 mph - 0.00 in Snow Snow
10:02 PM 12.9 °F 3.8 °F 6.1 °F 74% 29.67 in 1.0 mi West 5.8 mph - 0.00 in Snow Light Snow
10:10 PM 12.9 °F -0.2 °F 5.0 °F 71% 29.68 in 1.5 mi West 10.4 mph - 0.00 in Snow Light Snow
10:22 PM 12.9 °F -0.2 °F 3.9 °F 67% 29.68 in 3.0 mi West 10.4 mph 18.4 mph 0.00 in Snow Light Snow
10:44 PM 12.9 °F 0.7 °F 3.0 °F 65% 29.70 in 4.0 mi West 9.2 mph - 0.00 in   Haze
10:46 PM 12.2 °F -1.0 °F 3.2 °F 67% 29.70 in 1.5 mi West 10.4 mph - 0.00 in Snow Light Snow
10:48 PM 12.2 °F 1.7 °F 5.0 °F 73% 29.70 in 0.8 mi West 6.9 mph - 0.00 in Snow Light Snow
10:52 PM 12.0 °F -3.4 °F 5.0 °F 73% 29.77 in 0.5 mi West 13.8 mph 21.9 mph 0.00 in Snow Snow
11:05 PM 10.9 °F -3.4 °F 3.0 °F 70% 29.71 in 1.0 mi West 11.5 mph 23.0 mph 0.00 in Snow Light Snow
11:07 PM 10.9 °F -3.4 °F 1.9 °F 67% 29.71 in 2.0 mi West 11.5 mph 23.0 mph 0.00 in Snow Light Snow
11:14 PM 10.9 °F -7.5 °F -0.0 °F 61% 29.72 in 3.0 mi West 19.6 mph 25.3 mph 0.00 in   Haze
11:17 PM 10.9 °F -7.9 °F -0.0 °F 61% 29.72 in 1.8 mi West 20.7 mph 26.5 mph 0.00 in Snow Light Snow
11:22 PM 10.9 °F -5.9 °F -0.0 °F 61% 29.73 in 1.0 mi West 16.1 mph 26.5 mph 0.00 in Snow Light Snow
11:41 PM 10.0 °F -5.2 °F -0.0 °F 64% 29.74 in 1.8 mi West 12.7 mph 24.2 mph 0.00 in Snow Light Snow
11:44 PM 10.0 °F -5.2 °F -0.9 °F 61% 29.74 in 3.0 mi West 12.7 mph 24.2 mph 0.00 in   Haze
11:52 PM 9.0 °F -5.1 °F -2.9 °F 59% 29.82 in 6.0 mi West 10.4 mph 24.2 mph 0.00 in   Haze